| time (UTC) | temp F | wind direction | speed MPH | gust MPH | rain 1hr in | rain 24hr in | rain mn in | humidity % | barometer mb |
| 20260504023959 | 46 | 161 | 1.0 | 2.0 | 0.00 | 0.00 | 0.00 | 82 | 1017.8 |
| 20260504023455 | 47 | 165 | 2.0 | 2.0 | 0.00 | 0.00 | 0.00 | 81 | 1017.6 |
| 20260504022950 | 47 | 161 | 0.0 | 1.0 | 0.00 | 0.00 | 0.00 | 80 | 1017.8 |
| 20260504022447 | 47 | 156 | 2.0 | 2.0 | 0.00 | 0.00 | 0.00 | 80 | 1017.5 |
| 20260504021944 | 47 | 134 | 1.0 | 1.0 | 0.00 | 0.00 | 0.00 | 78 | 1017.5 |
| 20260504021441 | 48 | 143 | 1.0 | 2.0 | 0.00 | 0.00 | 0.00 | 78 | 1017.6 |
| 20260504020938 | 48 | 155 | 1.0 | 1.0 | 0.00 | 0.00 | 0.00 | 76 | 1017.3 |
| 20260504020434 | 48 | 159 | 1.0 | 1.0 | 0.00 | 0.00 | 0.00 | 75 | 1017.3 |
| 20260504015931 | 48 | 157 | 1.0 | 1.0 | 0.00 | 0.00 | 0.00 | 73 | 1017.4 |
| 20260504015427 | 49 | 160 | 1.0 | 2.0 | 0.00 | 0.00 | 0.00 | 74 | 1017.4 |
| 20260504014923 | 50 | 166 | 2.0 | 2.0 | 0.00 | 0.00 | 0.00 | 73 | 1017.0 |
| 20260504014420 | 50 | 161 | 0.0 | 1.0 | 0.00 | 0.00 | 0.00 | 68 | 1017.1 |
| 20260504013916 | 51 | 162 | 0.0 | 1.0 | 0.00 | 0.00 | 0.00 | 67 | 1017.2 |
| 20260504013415 | 52 | 164 | 0.0 | 1.0 | 0.00 | 0.00 | 0.00 | 63 | 1017.2 |
| 20260504012911 | 53 | 150 | 0.0 | 0.0 | 0.00 | 0.00 | 0.00 | 55 | 1016.9 |
| 20260504012409 | 53 | 150 | 0.0 | 0.0 | 0.00 | 0.00 | 0.00 | 58 | 1017.2 |
| 20260504011906 | 53 | 135 | 1.0 | 1.0 | 0.00 | 0.00 | 0.00 | 60 | 1017.0 |
| 20260504011403 | 54 | 136 | 1.0 | 1.0 | 0.00 | 0.00 | 0.00 | 59 | 1016.9 |
| 20260504010859 | 54 | 155 | 2.0 | 2.0 | 0.00 | 0.00 | 0.00 | 58 | 1016.9 |
| 20260504010355 | 55 | 134 | 1.0 | 1.0 | 0.00 | 0.00 | 0.00 | 55 | 1016.9 |
| 20260504005851 | 56 | 148 | 1.0 | 1.0 | 0.00 | 0.00 | 0.00 | 55 | 1016.4 |
| 20260504005348 | 57 | 208 | 0.0 | 1.0 | 0.00 | 0.00 | 0.00 | 52 | 1016.5 |
| 20260504004845 | 57 | 311 | 2.0 | 2.0 | 0.00 | 0.00 | 0.00 | 47 | 1016.5 |
| 20260504004343 | 57 | 167 | 0.0 | 1.0 | 0.00 | 0.00 | 0.00 | 47 | 1016.5 |
| 20260504003839 | 57 | 287 | 1.0 | 2.0 | 0.00 | 0.00 | 0.00 | 47 | 1016.3 |
| 20260504003336 | 58 | 221 | 2.0 | 2.0 | 0.00 | 0.00 | 0.00 | 48 | 1016.5 |
| 20260504002833 | 58 | 286 | 2.0 | 3.0 | 0.00 | 0.00 | 0.00 | 47 | 1016.3 |
| 20260504002330 | 58 | 315 | 2.0 | 2.0 | 0.00 | 0.00 | 0.00 | 47 | 1016.3 |
| 20260504001828 | 59 | 306 | 1.0 | 1.0 | 0.00 | 0.00 | 0.00 | 46 | 1016.2 |
| 20260504001325 | 59 | 293 | 2.0 | 2.0 | 0.00 | 0.00 | 0.00 | 48 | 1016.3 |
| 20260504000821 | 60 | 297 | 1.0 | 1.0 | 0.00 | 0.00 | 0.00 | 45 | 1016.0 |
| 20260504000318 | 61 | 306 | 5.0 | 6.0 | 0.00 | 0.00 | 0.00 | 43 | 1016.0 |
| 20260503235816 | 62 | 310 | 4.0 | 5.0 | 0.00 | 0.00 | 0.00 | 43 | 1016.3 |
| 20260503235313 | 62 | 38 | 3.0 | 3.0 | 0.00 | 0.00 | 0.00 | 42 | 1016.3 |
| 20260503234810 | 63 | 77 | 1.0 | 2.0 | 0.00 | 0.00 | 0.00 | 44 | 1015.9 |
| 20260503234303 | 64 | 33 | 4.0 | 6.0 | 0.00 | 0.00 | 0.00 | 41 | 1016.2 |
| 20260503233800 | 64 | 13 | 2.0 | 2.0 | 0.00 | 0.00 | 0.00 | 42 | 1015.8 |
| 20260503233255 | 64 | 6 | 0.0 | 1.0 | 0.00 | 0.00 | 0.00 | 43 | 1015.9 |
| 20260503232753 | 64 | 351 | 1.0 | 2.0 | 0.00 | 0.00 | 0.00 | 42 | 1015.8 |
| 20260503232250 | 66 | 17 | 1.0 | 1.0 | 0.00 | 0.00 | 0.00 | 41 | 1015.8 |
| 20260503231748 | 66 | 294 | 0.0 | 1.0 | 0.00 | 0.00 | 0.00 | 44 | 1015.8 |
| 20260503231245 | 65 | 2 | 1.0 | 2.0 | 0.00 | 0.00 | 0.00 | 42 | 1016.0 |
| 20260503230740 | 66 | 238 | 3.0 | 5.0 | 0.00 | 0.00 | 0.00 | 38 | 1016.0 |
| 20260503230237 | 65 | 304 | 2.0 | 3.0 | 0.00 | 0.00 | 0.00 | 41 | 1015.7 |
| 20260503225730 | 66 | 7 | 2.0 | 2.0 | 0.00 | 0.00 | 0.00 | 39 | 1015.9 |
| 20260503225229 | 67 | 29 | 3.0 | 3.0 | 0.00 | 0.00 | 0.00 | 36 | 1016.0 |
| 20260503224727 | 68 | 17 | 4.0 | 6.0 | 0.00 | 0.00 | 0.00 | 36 | 1015.7 |
| 20260503224224 | 67 | 328 | 1.0 | 2.0 | 0.00 | 0.00 | 0.00 | 40 | 1015.6 |
| 20260503223722 | 68 | 308 | 1.0 | 1.0 | 0.00 | 0.00 | 0.00 | 40 | 1015.7 |
| 20260503223219 | 66 | 286 | 1.0 | 1.0 | 0.00 | 0.00 | 0.00 | 39 | 1015.5 |
| 20260503222716 | 68 | 38 | 3.0 | 3.0 | 0.00 | 0.00 | 0.00 | 36 | 1015.7 |
| 20260503222214 | 67 | 338 | 3.0 | 5.0 | 0.00 | 0.00 | 0.00 | 36 | 1015.7 |
| 20260503221712 | 68 | 31 | 2.0 | 3.0 | 0.00 | 0.00 | 0.00 | 36 | 1015.7 |
| 20260503221209 | 67 | 305 | 3.0 | 3.0 | 0.00 | 0.00 | 0.00 | 37 | 1015.4 |
| 20260503220705 | 68 | 12 | 1.0 | 2.0 | 0.00 | 0.00 | 0.00 | 38 | 1015.7 |
| 20260503220202 | 68 | 306 | 2.0 | 3.0 | 0.00 | 0.00 | 0.00 | 39 | 1015.7 |
| 20260503215659 | 68 | 303 | 2.0 | 3.0 | 0.00 | 0.00 | 0.00 | 35 | 1015.8 |
| 20260503215156 | 68 | 308 | 2.0 | 2.0 | 0.00 | 0.00 | 0.00 | 41 | 1015.6 |
| 20260503214654 | 68 | 357 | 6.0 | 7.0 | 0.00 | 0.00 | 0.00 | 37 | 1015.6 |
| 20260503214149 | 68 | 149 | 4.0 | 7.0 | 0.00 | 0.00 | 0.00 | 34 | 1015.6 |
| 20260503213644 | 69 | 306 | 1.0 | 1.0 | 0.00 | 0.00 | 0.00 | 35 | 1015.7 |
| 20260503213140 | 68 | 49 | 1.0 | 1.0 | 0.00 | 0.00 | 0.00 | 39 | 1016.0 |
| 20260503212637 | 70 | 284 | 2.0 | 3.0 | 0.00 | 0.00 | 0.00 | 38 | 1015.9 |
| 20260503212135 | 68 | 354 | 1.0 | 1.0 | 0.00 | 0.00 | 0.00 | 38 | 1015.8 |
| 20260503211632 | 68 | 104 | 0.0 | 0.0 | 0.00 | 0.00 | 0.00 | 46 | 1016.0 |
| 20260503211127 | 67 | 84 | 2.0 | 3.0 | 0.00 | 0.00 | 0.00 | 36 | 1015.8 |
| 20260503210624 | 68 | 60 | 4.0 | 6.0 | 0.00 | 0.00 | 0.00 | 39 | 1016.0 |
| 20260503210121 | 69 | 331 | 0.0 | 1.0 | 0.00 | 0.00 | 0.00 | 40 | 1016.2 |
| 20260503205616 | 69 | 262 | 1.0 | 1.0 | 0.00 | 0.00 | 0.00 | 38 | 1016.0 |
| 20260503205113 | 68 | 277 | 0.0 | 0.0 | 0.00 | 0.00 | 0.00 | 34 | 1016.3 |
| 20260503204610 | 68 | 220 | 2.0 | 2.0 | 0.00 | 0.00 | 0.00 | 35 | 1016.4 |
| 20260503204108 | 68 | 288 | 4.0 | 5.0 | 0.00 | 0.00 | 0.00 | 37 | 1016.3 |
| 20260503203604 | 68 | 267 | 1.0 | 2.0 | 0.00 | 0.00 | 0.00 | 38 | 1016.3 |
| 20260503203102 | 68 | 305 | 2.0 | 3.0 | 0.00 | 0.00 | 0.00 | 43 | 1016.5 |
| 20260503202559 | 67 | 55 | 4.0 | 6.0 | 0.00 | 0.00 | 0.00 | 38 | 1016.4 |
| 20260503202057 | 69 | 92 | 0.0 | 1.0 | 0.00 | 0.00 | 0.00 | 39 | 1016.5 |
| 20260503201555 | 68 | 52 | 1.0 | 1.0 | 0.00 | 0.00 | 0.00 | 34 | 1016.8 |
| 20260503201051 | 67 | 291 | 2.0 | 3.0 | 0.00 | 0.00 | 0.00 | 38 | 1016.7 |
| 20260503200547 | 65 | 45 | 2.0 | 3.0 | 0.00 | 0.00 | 0.00 | 41 | 1017.0 |
| 20260503200044 | 67 | 285 | 1.0 | 2.0 | 0.00 | 0.00 | 0.00 | 37 | 1017.2 |
| 20260503195541 | 66 | 281 | 3.0 | 3.0 | 0.00 | 0.00 | 0.00 | 38 | 1017.0 |
| 20260503195038 | 66 | 286 | 2.0 | 3.0 | 0.00 | 0.00 | 0.00 | 46 | 1016.9 |
| 20260503194536 | 67 | 21 | 3.0 | 5.0 | 0.00 | 0.00 | 0.00 | 36 | 1017.1 |
| 20260503194035 | 67 | 311 | 3.0 | 3.0 | 0.00 | 0.00 | 0.00 | 37 | 1017.4 |
| 20260503193532 | 64 | 239 | 0.0 | 1.0 | 0.00 | 0.00 | 0.00 | 40 | 1017.2 |
| 20260503193027 | 66 | 5 | 2.0 | 2.0 | 0.00 | 0.00 | 0.00 | 36 | 1017.3 |
| 20260503192523 | 68 | 16 | 3.0 | 3.0 | 0.00 | 0.00 | 0.00 | 40 | 1017.2 |
| 20260503192019 | 68 | 260 | 1.0 | 2.0 | 0.00 | 0.00 | 0.00 | 45 | 1017.4 |
| 20260503191516 | 66 | 320 | 3.0 | 3.0 | 0.00 | 0.00 | 0.00 | 37 | 1017.5 |
| 20260503191013 | 67 | 291 | 3.0 | 3.0 | 0.00 | 0.00 | 0.00 | 41 | 1017.6 |
| 20260503190510 | 65 | 269 | 2.0 | 3.0 | 0.00 | 0.00 | 0.00 | 43 | 1017.9 |
| 20260503190008 | 66 | 344 | 3.0 | 6.0 | 0.00 | 0.00 | 0.00 | 37 | 1017.9 |
| 20260503185503 | 65 | 67 | 1.0 | 1.0 | 0.00 | 0.00 | 0.00 | 41 | 1017.8 |
| 20260503184958 | 64 | 86 | 0.0 | 1.0 | 0.00 | 0.00 | 0.00 | 40 | 1017.8 |
| 20260503184455 | 64 | 338 | 3.0 | 5.0 | 0.00 | 0.00 | 0.00 | 38 | 1018.1 |
| 20260503183951 | 66 | 104 | 1.0 | 2.0 | 0.00 | 0.00 | 0.00 | 37 | 1017.9 |
| 20260503183448 | 65 | 15 | 2.0 | 2.0 | 0.00 | 0.00 | 0.00 | 41 | 1018.1 |
| 20260503182944 | 63 | 89 | 0.0 | 1.0 | 0.00 | 0.00 | 0.00 | 43 | 1018.0 |
| 20260503182444 | 64 | 130 | 0.0 | 1.0 | 0.00 | 0.00 | 0.00 | 45 | 1018.2 |
| 20260503181941 | 64 | 161 | 0.0 | 1.0 | 0.00 | 0.00 | 0.00 | 40 | 1018.3 |
| 20260503181438 | 61 | 178 | 4.0 | 6.0 | 0.00 | 0.00 | 0.00 | 40 | 1018.5 |
| 20260503180933 | 64 | 52 | 0.0 | 1.0 | 0.00 | 0.00 | 0.00 | 37 | 1018.4 |
| 20260503180432 | 62 | 50 | 0.0 | 1.0 | 0.00 | 0.00 | 0.00 | 43 | 1018.4 |
| 20260503175928 | 63 | 243 | 1.0 | 2.0 | 0.00 | 0.00 | 0.00 | 37 | 1018.2 |
| 20260503175427 | 61 | 80 | 4.0 | 6.0 | 0.00 | 0.00 | 0.00 | 40 | 1018.4 |
| 20260503174922 | 62 | 280 | 2.0 | 2.0 | 0.00 | 0.00 | 0.00 | 41 | 1018.4 |
| 20260503174421 | 62 | 217 | 1.0 | 1.0 | 0.00 | 0.00 | 0.00 | 39 | 1018.5 |
| 20260503173920 | 60 | 13 | 2.0 | 3.0 | 0.00 | 0.00 | 0.00 | 44 | 1018.6 |
| 20260503173417 | 60 | 79 | 1.0 | 2.0 | 0.00 | 0.00 | 0.00 | 44 | 1018.6 |
| 20260503172914 | 63 | 45 | 3.0 | 5.0 | 0.00 | 0.00 | 0.00 | 38 | 1018.9 |
| 20260503172411 | 63 | 172 | 0.0 | 1.0 | 0.00 | 0.00 | 0.00 | 35 | 1019.0 |
| 20260503171907 | 61 | 163 | 0.0 | 1.0 | 0.00 | 0.00 | 0.00 | 40 | 1018.9 |
| 20260503171404 | 60 | 153 | 2.0 | 2.0 | 0.00 | 0.00 | 0.00 | 41 | 1019.0 |
| 20260503170902 | 59 | 17 | 3.0 | 5.0 | 0.00 | 0.00 | 0.00 | 45 | 1019.1 |
| 20260503170358 | 59 | 46 | 1.0 | 2.0 | 0.00 | 0.00 | 0.00 | 47 | 1019.3 |
| 20260503150750 | 51 | 85 | 3.0 | 6.0 | 0.00 | 0.00 | 0.00 | 57 | 1020.3 |
| 20260503150246 | 50 | 79 | 4.0 | 5.0 | 0.00 | 0.00 | 0.00 | 61 | 1020.3 |
| 20260503140211 | 46 | 165 | 0.0 | 0.0 | 0.00 | 0.00 | 0.00 | 76 | 1020.2 |
| 20260503131140 | 42 | 24 | 0.0 | 0.0 | 0.00 | 0.00 | 0.00 | 88 | 1020.2 |
| 20260503130638 | 41 | 51 | 0.0 | 0.0 | 0.00 | 0.00 | 0.00 | 89 | 1020.2 |
| 20260503130135 | 41 | 50 | 0.0 | 0.0 | 0.00 | 0.00 | 0.00 | 91 | 1020.1 |
| 20260503110527 | 34 | 158 | 0.0 | 1.0 | 0.00 | 0.00 | 0.00 | 99 | 1019.0 |
| 20260503090414 | 35 | 157 | 0.0 | 0.0 | 0.00 | 0.00 | 0.00 | 99 | 1017.8 |
| 20260503081341 | 36 | 131 | 2.0 | 2.0 | 0.00 | 0.00 | 0.00 | 99 | 1017.4 |
| 20260503080838 | 36 | 160 | 0.0 | 0.0 | 0.00 | 0.00 | 0.00 | 99 | 1017.5 |
| 20260503080335 | 36 | 138 | 0.0 | 1.0 | 0.00 | 0.00 | 0.00 | 99 | 1017.4 |
| 20260503072805 | 37 | 143 | 0.0 | 0.0 | 0.00 | 0.00 | 0.00 | 99 | 1017.1 |
| 20260503072305 | 37 | 165 | 1.0 | 1.0 | 0.00 | 0.00 | 0.00 | 99 | 1017.1 |
| 20260503071758 | 37 | 87 | 0.0 | 0.0 | 0.00 | 0.00 | 0.00 | 99 | 1017.1 |
| 20260503071256 | 37 | 155 | 1.0 | 2.0 | 0.00 | 0.00 | 0.00 | 99 | 1016.8 |
| 20260503070752 | 37 | 160 | 0.0 | 0.0 | 0.00 | 0.00 | 0.00 | 99 | 1017.2 |
| 20260503070250 | 37 | 61 | 1.0 | 1.0 | 0.00 | 0.00 | 0.00 | 97 | 1017.2 |
| 20260503060209 | 39 | 176 | 3.0 | 3.0 | 0.00 | 0.00 | 0.00 | 94 | 1016.8 |
| 20260503054656 | 40 | 162 | 2.0 | 2.0 | 0.00 | 0.00 | 0.00 | 94 | 1016.7 |
| 20260503054153 | 40 | 166 | 2.0 | 2.0 | 0.00 | 0.00 | 0.00 | 94 | 1016.6 |
| 20260503053651 | 40 | 165 | 1.0 | 1.0 | 0.00 | 0.00 | 0.00 | 94 | 1017.1 |
| 20260503053150 | 40 | 166 | 0.0 | 0.0 | 0.00 | 0.00 | 0.00 | 93 | 1017.2 |
| 20260503052646 | 40 | 163 | 1.0 | 1.0 | 0.00 | 0.00 | 0.00 | 94 | 1017.3 |
| 20260503052142 | 40 | 163 | 1.0 | 1.0 | 0.00 | 0.00 | 0.00 | 93 | 1016.9 |
| 20260503051637 | 41 | 155 | 0.0 | 0.0 | 0.00 | 0.00 | 0.00 | 92 | 1017.2 |
| 20260503051135 | 41 | 150 | 0.0 | 0.0 | 0.00 | 0.00 | 0.00 | 91 | 1017.2 |
| 20260503050632 | 41 | 149 | 0.0 | 0.0 | 0.00 | 0.00 | 0.00 | 91 | 1017.1 |
| 20260503050128 | 41 | 149 | 0.0 | 0.0 | 0.00 | 0.00 | 0.00 | 92 | 1017.2 |
| 20260503045626 | 41 | 147 | 0.0 | 0.0 | 0.00 | 0.00 | 0.00 | 91 | 1017.1 |
| 20260503045123 | 41 | 147 | 0.0 | 1.0 | 0.00 | 0.00 | 0.00 | 91 | 1017.0 |
| 20260503044619 | 41 | 142 | 1.0 | 1.0 | 0.00 | 0.00 | 0.00 | 90 | 1016.9 |
| 20260503044117 | 41 | 161 | 0.0 | 0.0 | 0.00 | 0.00 | 0.00 | 90 | 1016.7 |
| 20260503043614 | 41 | 154 | 0.0 | 0.0 | 0.00 | 0.00 | 0.00 | 89 | 1016.8 |
| 20260503043110 | 41 | 153 | 1.0 | 1.0 | 0.00 | 0.00 | 0.00 | 89 | 1016.8 |
| 20260503042607 | 41 | 142 | 1.0 | 1.0 | 0.00 | 0.00 | 0.00 | 88 | 1016.8 |
| 20260503042103 | 42 | 149 | 0.0 | 0.0 | 0.00 | 0.00 | 0.00 | 86 | 1016.6 |
| 20260503041600 | 41 | 139 | 0.0 | 0.0 | 0.00 | 0.00 | 0.00 | 86 | 1016.8 |
| 20260503041058 | 41 | 135 | 1.0 | 1.0 | 0.00 | 0.00 | 0.00 | 87 | 1016.5 |
| 20260503040555 | 40 | 161 | 0.0 | 0.0 | 0.00 | 0.00 | 0.00 | 91 | 1016.6 |
| 20260503040052 | 40 | 165 | 0.0 | 1.0 | 0.00 | 0.00 | 0.00 | 91 | 1016.6 |
| 20260503035548 | 40 | 166 | 1.0 | 2.0 | 0.00 | 0.00 | 0.00 | 91 | 1016.7 |
| 20260503035046 | 40 | 146 | 1.0 | 1.0 | 0.00 | 0.00 | 0.00 | 92 | 1016.6 |
| 20260503034543 | 40 | 157 | 1.0 | 1.0 | 0.00 | 0.00 | 0.00 | 91 | 1016.5 |
| 20260503034040 | 40 | 144 | 0.0 | 1.0 | 0.00 | 0.00 | 0.00 | 89 | 1016.6 |
| 20260503033537 | 41 | 149 | 0.0 | 0.0 | 0.00 | 0.00 | 0.00 | 88 | 1016.3 |
| 20260503033035 | 41 | 168 | 0.0 | 0.0 | 0.00 | 0.00 | 0.00 | 87 | 1016.5 |
| 20260503032533 | 41 | 168 | 0.0 | 0.0 | 0.00 | 0.00 | 0.00 | 87 | 1016.5 |
| 20260503032031 | 41 | 168 | 0.0 | 0.0 | 0.00 | 0.00 | 0.00 | 86 | 1016.4 |
| 20260503031529 | 42 | 168 | 0.0 | 0.0 | 0.00 | 0.00 | 0.00 | 85 | 1016.5 |
| 20260503031026 | 42 | 168 | 0.0 | 0.0 | 0.00 | 0.00 | 0.00 | 83 | 1016.5 |
| 20260503030522 | 43 | 168 | 0.0 | 0.0 | 0.00 | 0.00 | 0.00 | 80 | 1016.5 |
| 20260503030019 | 43 | 168 | 0.0 | 0.0 | 0.00 | 0.00 | 0.00 | 78 | 1016.4 |
| 20260503025515 | 43 | 168 | 0.0 | 0.0 | 0.00 | 0.00 | 0.00 | 79 | 1016.0 |
| 20260503025014 | 43 | 168 | 0.0 | 0.0 | 0.00 | 0.00 | 0.00 | 77 | 1015.9 |
| 20260503024509 | 44 | 169 | 0.0 | 0.0 | 0.00 | 0.00 | 0.00 | 77 | 1016.0 |